Eureka, Nunavut

6:17 PM CDT on July 28, 2016 (GMT -0500)
Eureka

Weather History for CWEU - September, 2013

Change the Weather History Date:

Thursday, September 5, 2013

  Actual Average Record
Temperature  
Mean Temperature 26 °F -  
Max Temperature 28 °F 18 °F 39 °F (2005)
Min Temperature 23 °F 7 °F 15 °F (2000)
Degree Days  
Heating Degree Days 40    
Moisture  
Dew Point 24 °F    
Average Humidity 90    
Maximum Humidity 100    
Minimum Humidity 77    
Precipitation  
Precipitation 0.08 in 0.01 in - ()
Sea Level Pressure  
Sea Level Pressure 29.49 in    
Wind  
Wind Speed 3 mph ()    
Max Wind Speed 10 mph    
Max Gust Speed -    
Visibility 7.5 miles    
Events Snow    
Averages and records for this station are not official NWS values.
T = Trace of Precipitation, MM = Missing Value Source: Averaged Metar Reports

Daily Weather History Graph

Daily Weather History Graph

Search for Another Location

Airport or City:

Trip Planner

Search our weather history database for the weather conditions in past years. The results will help you decide how hot, cold, wet, or windy it might be!

Date:

Astronomy

Sep. 05, 2013 Rise Set
Actual Time 3:28 AM CDT 9:46 PM CDT
Civil Twilight Sun does not set Sun does not set
Nautical Twilight Sun does not set Sun does not set
Astronomical Twilight Sun does not set Sun does not set
Moon 5:27 AM CDT (9/5) 7:08 PM CDT (9/5)
Length of Visible Light 24h 00m
Length of Day
18h 18m
New Moon, 0% of the Moon is Illuminated
Sep 5
New Moon
Sep 12
First Quarter
Sep 19
Full
Sep 26
Last Quarter
Oct 4
New

Hourly Weather History & Observations

Time (CDT) Temp. Windchill Dew Point Humidity Pressure Visibility Wind Dir Wind Speed Gust Speed Precip Events Conditions
12:00 AM 26.6 °F 20.0 °F 23.0 °F 86% 29.39 in 2.0 mi WSW 5.8 mph - N/A Snow Light Snow
1:00 AM 24 °F - 23 °F 92% 29.40 in 1 mi Calm Calm - - Snow Light Snow
1:00 AM 24.8 °F - 23.0 °F 93% 29.40 in 1.5 mi Calm Calm - N/A Snow Light Snow
2:00 AM 24.8 °F 20.5 °F 23.0 °F 93% 29.41 in 1.8 mi ESE 3.5 mph - N/A Snow Light Snow
3:00 AM 24.8 °F 20.5 °F 23.0 °F 93% 29.42 in 2.0 mi South 3.5 mph - N/A Snow Light Snow
4:00 AM 24.8 °F - 23.0 °F 93% 29.44 in 1.5 mi Calm Calm - N/A Snow Light Snow
4:31 AM - - - N/A% - 1.0 mi Calm Calm - N/A   Unknown
5:00 AM 26.6 °F - 24.8 °F 93% 29.45 in 1.2 mi Calm Calm - N/A Snow Light Snow
5:24 AM - - - N/A% - 0.8 mi Calm Calm - N/A   Unknown
5:48 AM - - - N/A% - 1.5 mi WNW 2.3 mph - N/A   Unknown
6:00 AM 24.8 °F 20.5 °F 24.8 °F 100% 29.47 in 1.5 mi WNW 3.5 mph - N/A Snow Light Snow
7:00 AM 26 °F - 24 °F 90% 29.47 in 1 mi West 5.8 mph - - Snow Light Snow
7:00 AM 24.8 °F 16.9 °F 24.8 °F 100% 29.47 in 1.2 mi West 6.9 mph - N/A Snow Light Snow
8:00 AM 26.6 °F 19.1 °F 24.8 °F 93% 29.48 in 1.8 mi West 6.9 mph - N/A Snow Light Snow
9:00 AM 26.6 °F 22.6 °F 24.8 °F 93% 29.49 in 1.0 mi NW 3.5 mph - N/A Snow Light Snow
9:17 AM - - - N/A% - 4.0 mi WNW 2.3 mph - N/A   Unknown
9:27 AM - - - N/A% - 2.0 mi Calm Calm - N/A   Unknown
10:00 AM 26.6 °F - 24.8 °F 93% 29.49 in 1.5 mi SSW 2.3 mph - N/A Snow Light Snow
11:00 AM 26.6 °F 22.6 °F 24.8 °F 93% 29.50 in 7.0 mi South 3.5 mph - N/A Snow Light Snow
12:00 PM 28.4 °F - 24.8 °F 86% 29.50 in 7.0 mi WNW 2.3 mph - N/A Snow Light Snow
1:00 PM 28 °F - 26 °F 86% 29.51 in 12 mi Calm Calm - - Snow Light Snow
1:00 PM 28.4 °F - 24.8 °F 86% 29.51 in 12.0 mi Calm Calm - N/A Snow Light Snow
2:00 PM 28.4 °F 22.2 °F 24.8 °F 86% 29.52 in 15.0 mi SSE 5.8 mph - N/A   Mostly Cloudy
3:00 PM 26.6 °F 19.1 °F 24.8 °F 93% 29.53 in 15.0 mi SE 6.9 mph - N/A   Mostly Cloudy
4:00 PM 26.6 °F 19.1 °F 24.8 °F 93% 29.54 in 15.0 mi SSE 6.9 mph - N/A   Mostly Cloudy
4:49 PM - - - N/A% - 15.0 mi SSE 6.9 mph - N/A   Unknown
5:00 PM 26.6 °F 20.0 °F 23.0 °F 86% 29.54 in 15.0 mi SE 5.8 mph - N/A Snow Light Snow
5:28 PM - - - N/A% - 15.0 mi SE 8.1 mph - N/A   Mostly Cloudy
6:00 PM 26.6 °F 19.1 °F 23.0 °F 86% 29.55 in 15.0 mi SSE 6.9 mph - N/A   Mostly Cloudy
7:00 PM 26 °F - 22 °F 77% 29.55 in 15 mi SSE 4.6 mph - -   Partly Cloudy
7:00 PM 24.8 °F 19.1 °F 21.2 °F 86% 29.55 in 15.0 mi SSE 4.6 mph - N/A   Mostly Cloudy
8:00 PM 24.8 °F 19.1 °F 21.2 °F 86% 29.56 in 15.0 mi SSE 4.6 mph - N/A   Mostly Cloudy
9:00 PM 26.6 °F 16.8 °F 23.0 °F 86% 29.55 in 15.0 mi South 10.4 mph - N/A   Mostly Cloudy
10:00 PM 26.6 °F 18.2 °F 23.0 °F 86% 29.56 in 15.0 mi South 8.1 mph - N/A   Mostly Cloudy
11:00 PM 24.8 °F 16.9 °F 21.2 °F 86% 29.56 in 15.0 mi SSW 6.9 mph - N/A   Mostly Cloudy